Satellite: NOAA-11
Catalog number: 19531
Epoch time:      08114.71523827
Element set:     139
Inclination:      098.7959 deg
RA of node:       204.8009 deg
Eccentricity:    0.0011143
Arg of perigee:   220.2339 deg
Mean anomaly:     139.8010 deg
Mean motion:   14.14870731 rev/day
Decay rate:       1.29e-06 rev/day^2
Epoch rev:            1020
Checksum:              267

Satellite: NOAA-12
Catalog number: 21263
Epoch time:      08114.66509751
Element set:     646
Inclination:      098.7662 deg
RA of node:       116.6230 deg
Eccentricity:    0.0011423
Arg of perigee:   285.1479 deg
Mean anomaly:     074.8425 deg
Mean motion:   14.25528388 rev/day
Decay rate:       1.10e-06 rev/day^2
Epoch rev:           88062
Checksum:              302

Satellite: MET-3/5
Catalog number: 21655
Epoch time:      08115.78675368
Element set:     422
Inclination:      082.5548 deg
RA of node:       142.1119 deg
Eccentricity:    0.0013894
Arg of perigee:   141.4381 deg
Mean anomaly:     218.7736 deg
Mean motion:   13.17015289 rev/day
Decay rate:        5.1e-07 rev/day^2
Epoch rev:           80255
Checksum:              306

Satellite: MET-2/21
Catalog number: 22782
Epoch time:      08115.55207268
Element set:     124
Inclination:      082.5474 deg
RA of node:       154.1268 deg
Eccentricity:    0.0024260
Arg of perigee:   081.2992 deg
Mean anomaly:     279.0924 deg
Mean motion:   13.83626736 rev/day
Decay rate:        1.1e-07 rev/day^2
Epoch rev:           73971
Checksum:              303

Satellite: OKEAN-4
Catalog number: 23317
Epoch time:      08114.72720832
Element set:    0569
Inclination:      082.5419 deg
RA of node:       005.8879 deg
Eccentricity:    0.0021085
Arg of perigee:   310.4023 deg
Mean anomaly:     049.5361 deg
Mean motion:   14.82602752 rev/day
Decay rate:       1.53e-06 rev/day^2
Epoch rev:           73021
Checksum:              277

Satellite: NOAA-14
Catalog number: 23455
Epoch time:      08115.61836752
Element set:     120
Inclination:      098.9480 deg
RA of node:       187.8231 deg
Eccentricity:    0.0008582
Arg of perigee:   298.1180 deg
Mean anomaly:     061.9146 deg
Mean motion:   14.13739420 rev/day
Decay rate:       1.01e-06 rev/day^2
Epoch rev:           68678
Checksum:              308

Satellite: SICH-1
Catalog number: 23657
Epoch time:      08114.71279545
Element set:    0366
Inclination:      082.5263 deg
RA of node:       146.8777 deg
Eccentricity:    0.0022412
Arg of perigee:   301.9311 deg
Mean anomaly:     057.9737 deg
Mean motion:   14.81570490 rev/day
Decay rate:       1.12e-06 rev/day^2
Epoch rev:           68215
Checksum:              301

Satellite: NOAA-15
Catalog number: 25338
Epoch time:      08114.71849509
Element set:     441
Inclination:      098.5526 deg
RA of node:       107.9676 deg
Eccentricity:    0.0010185
Arg of perigee:   195.6034 deg
Mean anomaly:     164.4831 deg
Mean motion:   14.24697319 rev/day
Decay rate:       1.84e-06 rev/day^2
Epoch rev:           51704
Checksum:              320

Satellite: RESURS
Catalog number: 25394
Epoch time:      08115.71364622
Element set:     910
Inclination:      098.3894 deg
RA of node:       162.0950 deg
Eccentricity:    0.0001925
Arg of perigee:   026.9696 deg
Mean anomaly:     333.1583 deg
Mean motion:   14.24157308 rev/day
Decay rate:        4.0e-08 rev/day^2
Epoch rev:           50883
Checksum:              298

Satellite: FENGYUN1
Catalog number: 25730
Epoch time:      08114.96727220
Element set:    0429
Inclination:      098.7227 deg
RA of node:       092.5924 deg
Eccentricity:    0.0021613
Arg of perigee:   329.7156 deg
Mean anomaly:     030.2761 deg
Mean motion:   14.07716242 rev/day
Decay rate:      -4.31e-06 rev/day^2
Epoch rev:           46133
Checksum:              282

Satellite: OKEAN-0
Catalog number: 25860
Epoch time:      08114.58807157
Element set:    0349
Inclination:      097.7484 deg
RA of node:       107.5592 deg
Eccentricity:    0.0001880
Arg of perigee:   075.1902 deg
Mean anomaly:     284.9510 deg
Mean motion:   14.73516409 rev/day
Decay rate:        6.2e-07 rev/day^2
Epoch rev:           47135
Checksum:              309

Satellite: NOAA-16
Catalog number: 26536
Epoch time:      08114.66308805
Element set:     908
Inclination:      099.1546 deg
RA of node:       102.6517 deg
Eccentricity:    0.0010919
Arg of perigee:   023.5507 deg
Mean anomaly:     336.6166 deg
Mean motion:   14.12477867 rev/day
Decay rate:       2.69e-06 rev/day^2
Epoch rev:           39107
Checksum:              319

Satellite: NOAA-17
Catalog number: 27453
Epoch time:      08115.57998294
Element set:     903
Inclination:      098.5377 deg
RA of node:       181.7493 deg
Eccentricity:    0.0010799
Arg of perigee:   262.8760 deg
Mean anomaly:     097.1214 deg
Mean motion:   14.23967792 rev/day
Decay rate:       1.52e-06 rev/day^2
Epoch rev:           30317
Checksum:              344

